OOEHY BGBW-CYFB

Flight info

Callsign OOEHY
Flight time N/A
Altitude 4000
Route BW020 DCT OVEDA DCT 62N050W 63N055W DCT KAGLY/N0109F040 DCT DUTUM DCT BILKU
Aircraft C172/L-SFG/C

Departure

Time 2026-04-16 18:43
Airport Narsarsuaq Airport (BGBW)

Arrival

Time N/A
Airport Iqaluit Airport (CYFB)
Time Latitude Longitude Altitude Speed Heading
2026-04-16 18:42 61.01596 -45.59640 3183 ft 78 kts 292°
2026-04-16 18:43 61.01841 -45.60640 3319 ft 77 kts 293°
2026-04-16 18:43 61.02085 -45.61629 3440 ft 77 kts 293°
2026-04-16 18:43 61.02329 -45.62618 3546 ft 78 kts 293°
2026-04-16 18:43 61.02576 -45.63617 3657 ft 78 kts 292°
2026-04-16 18:44 61.02821 -45.64613 3765 ft 78 kts 293°
2026-04-16 18:44 61.03068 -45.65614 3870 ft 78 kts 292°
2026-04-16 18:44 61.03316 -45.66617 3981 ft 78 kts 292°
2026-04-16 18:44 61.03563 -45.67620 4087 ft 78 kts 292°
2026-04-16 18:45 61.03815 -45.68640 4179 ft 79 kts 291°
2026-04-16 18:45 61.04066 -45.69658 4254 ft 80 kts 291°
2026-04-16 18:45 61.04317 -45.70679 4348 ft 79 kts 291°
2026-04-16 18:45 61.04565 -45.71687 4437 ft 80 kts 291°
2026-04-16 18:46 61.04820 -45.72723 4526 ft 80 kts 291°
2026-04-16 18:46 61.05071 -45.73739 4621 ft 80 kts 291°
2026-04-16 18:46 61.05122 -45.73947 4639 ft 80 kts 291°
2026-04-16 18:46 61.05310 -45.74716 4702 ft 81 kts 291°
2026-04-16 18:47 61.05563 -45.75744 4801 ft 80 kts 291°
2026-04-16 18:47 61.05816 -45.76773 4892 ft 81 kts 291°
2026-04-16 18:47 61.06083 -45.77853 4916 ft 90 kts 294°
2026-04-16 18:47 61.06393 -45.79047 4924 ft 97 kts 297°
2026-04-16 18:48 61.06726 -45.80290 4918 ft 100 kts 297°
2026-04-16 18:48 61.07057 -45.81554 4920 ft 103 kts 296°
2026-04-16 18:48 61.07402 -45.82915 4925 ft 110 kts 297°
2026-04-16 18:48 61.07768 -45.84363 4924 ft 118 kts 297°
2026-04-16 18:49 61.08161 -45.85905 4912 ft 124 kts 298°
2026-04-16 18:49 61.08567 -45.87510 4909 ft 128 kts 297°
2026-04-16 18:49 61.08973 -45.89135 4906 ft 125 kts 297°
2026-04-16 18:49 61.09364 -45.90723 4910 ft 123 kts 297°
2026-04-16 18:50 61.09745 -45.92284 4917 ft 122 kts 297°
2026-04-16 18:50 61.10123 -45.93842 4900 ft 117 kts 296°
2026-04-16 18:50 61.10481 -45.95338 4908 ft 118 kts 296°
2026-04-16 18:50 61.10853 -45.96881 4902 ft 119 kts 296°
2026-04-16 18:51 61.11222 -45.98405 4900 ft 120 kts 296°
2026-04-16 18:51 61.11599 -45.99960 4895 ft 120 kts 296°
2026-04-16 18:51 61.11975 -46.01511 4889 ft 121 kts 296°
2026-04-16 18:51 61.12351 -46.03062 4903 ft 121 kts 296°
2026-04-16 18:52 61.12725 -46.04605 4894 ft 122 kts 296°
2026-04-16 18:52 61.13104 -46.06165 4887 ft 121 kts 297°
2026-04-16 18:52 61.13482 -46.07729 4885 ft 121 kts 296°
2026-04-16 18:52 61.13858 -46.09290 4889 ft 122 kts 296°
2026-04-16 18:53 61.14238 -46.10866 4879 ft 122 kts 297°
2026-04-16 18:53 61.14618 -46.12445 4878 ft 121 kts 296°
2026-04-16 18:53 61.14995 -46.14010 4884 ft 121 kts 296°
2026-04-16 18:53 61.15371 -46.15572 4889 ft 121 kts 297°
2026-04-16 18:54 61.15747 -46.17131 4885 ft 121 kts 296°
2026-04-16 18:54 61.16125 -46.18704 4882 ft 122 kts 296°
2026-04-16 18:54 61.16499 -46.20264 4878 ft 122 kts 296°
2026-04-16 18:54 61.16880 -46.21851 4881 ft 122 kts 296°
2026-04-16 18:55 61.17255 -46.23414 4875 ft 122 kts 296°
2026-04-16 18:55 61.17630 -46.24977 4878 ft 122 kts 297°
2026-04-16 18:55 61.17916 -46.26162 4881 ft 122 kts 297°
2026-04-16 18:56 61.18298 -46.27755 4872 ft 123 kts 297°
2026-04-16 18:56 61.18674 -46.29333 4868 ft 123 kts 297°
2026-04-16 18:56 61.19056 -46.30931 4860 ft 122 kts 296°
2026-04-16 18:56 61.19431 -46.32510 4853 ft 122 kts 296°
2026-04-16 18:57 61.19803 -46.34076 4837 ft 121 kts 296°
2026-04-16 18:57 61.20174 -46.35634 4849 ft 121 kts 295°
2026-04-16 18:57 61.20544 -46.37202 4846 ft 121 kts 295°
2026-04-16 18:58 61.21298 -46.40361 4813 ft 122 kts 297°
2026-04-16 18:58 61.21673 -46.41930 4817 ft 120 kts 296°
2026-04-16 18:58 61.22042 -46.43475 4794 ft 119 kts 295°
2026-04-16 18:58 61.22406 -46.45005 4798 ft 118 kts 296°
2026-04-16 18:59 61.22767 -46.46534 4786 ft 117 kts 294°
2026-04-16 18:59 61.23122 -46.48041 4777 ft 116 kts 297°
2026-04-16 18:59 61.23474 -46.49530 4765 ft 114 kts 296°
2026-04-16 18:59 61.23821 -46.51004 4765 ft 113 kts 295°
2026-04-16 19:00 61.24161 -46.52457 4762 ft 109 kts 296°
2026-04-16 19:00 61.24488 -46.53856 4754 ft 106 kts 294°
2026-04-16 19:00 61.24804 -46.55233 4762 ft 106 kts 293°
2026-04-16 19:00 61.25119 -46.56607 4751 ft 106 kts 293°
2026-04-16 19:01 61.25436 -46.57982 4754 ft 104 kts 294°
2026-04-16 19:01 61.25740 -46.59316 4758 ft 101 kts 292°
2026-04-16 19:01 61.26039 -46.60623 4749 ft 98 kts 292°
2026-04-16 19:01 61.26323 -46.61886 4748 ft 95 kts 289°
2026-04-16 19:02 61.26595 -46.63102 4730 ft 90 kts 290°
2026-04-16 19:02 61.26637 -46.63293 4725 ft 89 kts 290°
2026-04-16 19:02 61.26833 -46.64234 4684 ft 86 kts 281°
2026-04-16 19:03 61.26728 -46.65372 4537 ft 86 kts 256°
2026-04-16 19:03 61.26728 -46.66674 4498 ft 91 kts 271°
2026-04-16 19:04 61.26906 -46.67694 4599 ft 87 kts 283°
2026-04-16 19:04 61.27182 -46.68686 4728 ft 81 kts 303°
2026-04-16 19:04 61.27522 -46.69644 4788 ft 84 kts 304°
2026-04-16 19:04 61.27867 -46.70650 4867 ft 85 kts 302°
2026-04-16 19:05 61.28197 -46.71672 4950 ft 86 kts 301°
2026-04-16 19:05 61.28522 -46.72740 5035 ft 86 kts 299°
2026-04-16 19:05 61.28831 -46.73808 5120 ft 86 kts 298°
2026-04-16 19:05 61.29127 -46.74879 5201 ft 86 kts 297°
2026-04-16 19:06 61.29423 -46.75979 5283 ft 86 kts 297°
2026-04-16 19:06 61.29709 -46.77070 5363 ft 86 kts 296°
2026-04-16 19:06 61.29991 -46.78176 5443 ft 86 kts 296°
2026-04-16 19:06 61.30272 -46.79297 5522 ft 87 kts 295°
2026-04-16 19:07 61.30548 -46.80416 5600 ft 87 kts 295°
2026-04-16 19:07 61.30819 -46.81525 5676 ft 87 kts 295°
2026-04-16 19:07 61.31094 -46.82659 5753 ft 87 kts 295°
2026-04-16 19:07 61.31109 -46.82724 5757 ft 87 kts 295°
2026-04-16 19:08 61.31381 -46.83856 5833 ft 87 kts 294°
2026-04-16 19:08 61.31650 -46.84981 5907 ft 87 kts 294°
2026-04-16 19:08 61.31919 -46.86113 5981 ft 87 kts 294°
2026-04-16 19:08 61.32189 -46.87252 6054 ft 87 kts 294°
2026-04-16 19:09 61.32455 -46.88388 6125 ft 87 kts 294°
2026-04-16 19:09 61.32723 -46.89531 6196 ft 88 kts 294°
2026-04-16 19:09 61.32990 -46.90673 6266 ft 88 kts 294°
2026-04-16 19:09 61.33258 -46.91820 6335 ft 88 kts 294°
2026-04-16 19:10 61.33522 -46.92956 6402 ft 88 kts 294°
2026-04-16 19:10 61.33789 -46.94098 6469 ft 88 kts 294°
2026-04-16 19:10 61.34059 -46.95260 6536 ft 88 kts 294°
2026-04-16 19:10 61.34326 -46.96409 6601 ft 88 kts 294°
2026-04-16 19:11 61.34592 -46.97556 6665 ft 88 kts 294°
2026-04-16 19:11 61.34858 -46.98697 6729 ft 88 kts 294°
2026-04-16 19:11 61.35127 -46.99860 6792 ft 88 kts 294°
2026-04-16 19:11 61.35393 -47.01010 6854 ft 88 kts 294°
2026-04-16 19:12 61.35661 -47.02166 6915 ft 88 kts 294°
2026-04-16 19:12 61.35931 -47.03330 6976 ft 89 kts 294°
2026-04-16 19:12 61.36200 -47.04492 7036 ft 89 kts 294°
2026-04-16 19:12 61.36468 -47.05654 7096 ft 89 kts 294°
2026-04-16 19:13 61.36733 -47.06802 7153 ft 89 kts 294°
2026-04-16 19:13 61.37001 -47.07962 7211 ft 89 kts 294°
2026-04-16 19:13 61.37272 -47.09137 7269 ft 89 kts 294°
2026-04-16 19:13 61.37456 -47.09934 7308 ft 89 kts 294°
2026-04-16 19:14 61.37503 -47.10141 7318 ft 89 kts 294°
2026-04-16 19:14 61.37774 -47.11313 7374 ft 89 kts 294°
2026-04-16 19:14 61.38042 -47.12477 7429 ft 89 kts 294°
2026-04-16 19:15 61.38311 -47.13646 7484 ft 89 kts 294°
2026-04-16 19:15 61.38578 -47.14805 7538 ft 89 kts 294°
2026-04-16 19:15 61.38851 -47.15984 7654 ft 89 kts 291°
2026-04-16 19:15 61.39127 -47.17179 7721 ft 95 kts 287°
2026-04-16 19:16 61.39416 -47.18438 7827 ft 97 kts 284°
2026-04-16 19:16 61.39650 -47.19462 7887 ft 102 kts 284°
2026-04-16 19:16 61.39964 -47.20831 7937 ft 105 kts 285°
2026-04-16 19:16 61.40284 -47.22207 8008 ft 105 kts 285°
2026-04-16 19:17 61.40604 -47.23586 8064 ft 106 kts 285°
2026-04-16 19:17 61.40920 -47.24956 8126 ft 105 kts 284°
2026-04-16 19:17 61.41236 -47.26332 8168 ft 105 kts 285°
2026-04-16 19:17 61.41550 -47.27703 8220 ft 106 kts 284°
2026-04-16 19:18 61.41867 -47.29084 8289 ft 105 kts 284°
2026-04-16 19:18 61.42184 -47.30464 8353 ft 104 kts 284°
2026-04-16 19:18 61.42496 -47.31831 8406 ft 104 kts 284°
2026-04-16 19:18 61.42808 -47.33201 8451 ft 105 kts 284°
2026-04-16 19:19 61.43122 -47.34575 8508 ft 105 kts 283°
2026-04-16 19:19 61.43436 -47.35955 8555 ft 105 kts 283°
2026-04-16 19:19 61.43750 -47.37334 8601 ft 105 kts 283°
2026-04-16 19:19 61.43791 -47.37516 8606 ft 106 kts 283°
2026-04-16 19:20 61.44090 -47.38835 8648 ft 106 kts 284°
2026-04-16 19:20 61.44405 -47.40220 8686 ft 108 kts 284°
2026-04-16 19:20 61.44742 -47.41696 8683 ft 114 kts 286°
2026-04-16 19:20 61.45097 -47.43212 8677 ft 120 kts 287°
2026-04-16 19:21 61.45469 -47.44794 8681 ft 124 kts 288°
2026-04-16 19:21 61.45861 -47.46450 8672 ft 130 kts 289°
2026-04-16 19:21 61.46271 -47.48182 8669 ft 134 kts 290°
2026-04-16 19:21 61.46687 -47.49941 8676 ft 136 kts 290°
2026-04-16 19:22 61.47109 -47.51727 8678 ft 139 kts 290°
2026-04-16 19:22 61.47541 -47.53564 8672 ft 142 kts 290°
2026-04-16 19:22 61.47978 -47.55430 8662 ft 144 kts 290°
2026-04-16 19:22 61.48415 -47.57318 8657 ft 145 kts 290°
2026-04-16 19:23 61.48847 -47.59193 8651 ft 143 kts 290°
2026-04-16 19:23 61.49276 -47.61062 8649 ft 140 kts 289°
2026-04-16 19:23 61.49690 -47.62894 8647 ft 139 kts 289°
2026-04-16 19:23 61.50104 -47.64745 8641 ft 139 kts 288°
2026-04-16 19:24 61.50510 -47.66564 8642 ft 139 kts 288°
2026-04-16 19:24 61.50919 -47.68392 8639 ft 138 kts 287°
2026-04-16 19:24 61.51328 -47.70228 8639 ft 138 kts 287°
2026-04-16 19:24 61.51730 -47.72031 8636 ft 138 kts 287°
2026-04-16 19:25 61.52140 -47.73873 8632 ft 139 kts 287°
2026-04-16 19:25 61.52549 -47.75699 8626 ft 139 kts 287°
2026-04-16 19:25 61.52953 -47.77515 8638 ft 138 kts 288°
2026-04-16 19:25 61.53358 -47.79331 8639 ft 138 kts 287°
2026-04-16 19:26 61.53765 -47.81157 8638 ft 139 kts 287°
2026-04-16 19:26 61.54171 -47.82983 8644 ft 138 kts 287°
2026-04-16 19:26 61.54581 -47.84824 8646 ft 138 kts 287°
2026-04-16 19:26 61.54985 -47.86642 8647 ft 138 kts 287°
2026-04-16 19:27 61.55389 -47.88462 8661 ft 138 kts 287°
2026-04-16 19:27 61.55790 -47.90278 8672 ft 137 kts 287°
2026-04-16 19:27 61.56193 -47.92102 8680 ft 138 kts 287°
2026-04-16 19:27 61.56597 -47.93929 8682 ft 138 kts 287°
2026-04-16 19:28 61.57002 -47.95760 8690 ft 138 kts 287°
2026-04-16 19:28 61.57404 -47.97578 8697 ft 139 kts 288°
2026-04-16 19:28 61.57812 -47.99424 8697 ft 139 kts 288°
2026-04-16 19:28 61.58219 -48.01261 8707 ft 139 kts 287°
2026-04-16 19:29 61.58630 -48.03112 8700 ft 140 kts 288°
2026-04-16 19:29 61.59038 -48.04960 8709 ft 139 kts 288°
2026-04-16 19:29 61.59448 -48.06810 8709 ft 140 kts 287°
2026-04-16 19:29 61.59856 -48.08663 8716 ft 140 kts 287°
2026-04-16 19:30 61.60261 -48.10503 8717 ft 139 kts 288°
2026-04-16 19:30 61.60667 -48.12355 8727 ft 138 kts 288°
2026-04-16 19:30 61.61063 -48.14164 8737 ft 138 kts 288°
2026-04-16 19:30 61.61465 -48.16006 8739 ft 139 kts 288°
2026-04-16 19:31 61.61870 -48.17850 8746 ft 139 kts 287°
2026-04-16 19:31 61.62271 -48.19684 8755 ft 139 kts 288°
2026-04-16 19:31 61.62676 -48.21538 8756 ft 139 kts 287°
2026-04-16 19:31 61.63084 -48.23394 8754 ft 140 kts 287°
2026-04-16 19:32 61.63490 -48.25248 8757 ft 139 kts 288°
2026-04-16 19:32 61.63892 -48.27095 8754 ft 139 kts 288°
2026-04-16 19:32 61.64295 -48.28939 8751 ft 139 kts 287°
2026-04-16 19:32 61.64702 -48.30804 8756 ft 140 kts 287°
2026-04-16 19:33 61.65108 -48.32661 8735 ft 140 kts 287°
2026-04-16 19:33 61.65509 -48.34512 8745 ft 139 kts 287°
2026-04-16 19:33 61.65916 -48.36386 8744 ft 139 kts 287°
2026-04-16 19:33 61.66314 -48.38224 8743 ft 139 kts 287°
2026-04-16 19:34 61.66712 -48.40062 8743 ft 139 kts 287°
2026-04-16 19:34 61.67113 -48.41914 8734 ft 140 kts 288°
2026-04-16 19:34 61.67518 -48.43780 8724 ft 140 kts 288°
2026-04-16 19:34 61.67920 -48.45637 8726 ft 140 kts 287°
2026-04-16 19:35 61.68327 -48.47521 8715 ft 140 kts 287°
2026-04-16 19:35 61.68726 -48.49363 8712 ft 139 kts 288°
2026-04-16 19:35 61.69126 -48.51221 8710 ft 139 kts 287°
2026-04-16 19:35 61.69525 -48.53080 8710 ft 139 kts 287°
2026-04-16 19:36 61.69922 -48.54928 8700 ft 140 kts 287°
2026-04-16 19:36 61.70325 -48.56797 8696 ft 140 kts 287°
2026-04-16 19:36 61.70727 -48.58666 8694 ft 140 kts 288°
2026-04-16 19:36 61.71124 -48.60516 8688 ft 140 kts 288°
2026-04-16 19:37 61.71527 -48.62390 8685 ft 139 kts 288°
2026-04-16 19:37 61.71924 -48.64241 8678 ft 139 kts 288°
2026-04-16 19:37 61.72322 -48.66101 8678 ft 139 kts 287°
2026-04-16 19:37 61.72718 -48.67958 8671 ft 139 kts 286°
2026-04-16 19:38 61.73116 -48.69821 8667 ft 139 kts 286°
2026-04-16 19:38 61.73510 -48.71675 8667 ft 139 kts 286°
2026-04-16 19:38 61.73905 -48.73525 8661 ft 139 kts 286°
2026-04-16 19:38 61.74306 -48.75399 8658 ft 139 kts 286°
2026-04-16 19:39 61.74702 -48.77256 8667 ft 139 kts 286°
2026-04-16 19:39 61.75096 -48.79105 8671 ft 140 kts 286°
2026-04-16 19:39 61.75493 -48.80969 8683 ft 140 kts 287°
2026-04-16 19:39 61.75892 -48.82847 8697 ft 139 kts 287°
2026-04-16 19:40 61.76284 -48.84694 8709 ft 138 kts 287°
2026-04-16 19:40 61.76674 -48.86538 8721 ft 137 kts 286°
2026-04-16 19:40 61.77065 -48.88393 8747 ft 138 kts 287°
2026-04-16 19:40 61.77456 -48.90244 8756 ft 138 kts 286°
2026-04-16 19:41 61.77849 -48.92097 8757 ft 139 kts 286°
2026-04-16 19:41 61.78241 -48.93946 8770 ft 138 kts 286°
2026-04-16 19:41 61.78631 -48.95793 8778 ft 137 kts 286°
2026-04-16 19:41 61.79016 -48.97618 8795 ft 137 kts 285°
2026-04-16 19:42 61.79406 -48.99474 8806 ft 137 kts 286°
2026-04-16 19:42 61.79789 -49.01298 8800 ft 137 kts 285°
2026-04-16 19:42 61.80177 -49.03149 8817 ft 137 kts 286°
2026-04-16 19:42 61.80566 -49.05000 8797 ft 138 kts 286°
2026-04-16 19:43 61.80947 -49.06817 8793 ft 136 kts 285°
2026-04-16 19:43 61.81331 -49.08654 8807 ft 137 kts 285°
2026-04-16 19:43 61.81717 -49.10502 8796 ft 139 kts 285°
2026-04-16 19:43 61.82107 -49.12368 8803 ft 139 kts 285°
2026-04-16 19:44 61.82498 -49.14234 8793 ft 140 kts 285°
2026-04-16 19:44 61.82894 -49.16119 8794 ft 139 kts 286°
2026-04-16 19:44 61.83291 -49.18007 8789 ft 140 kts 286°
2026-04-16 19:44 61.83683 -49.19876 8791 ft 139 kts 285°
2026-04-16 19:45 61.84077 -49.21751 8790 ft 139 kts 285°
2026-04-16 19:45 61.84465 -49.23624 8803 ft 139 kts 285°
2026-04-16 19:45 61.84854 -49.25491 8813 ft 139 kts 285°
2026-04-16 19:45 61.85241 -49.27349 8801 ft 139 kts 284°
2026-04-16 19:46 61.85632 -49.29236 8797 ft 138 kts 285°
2026-04-16 19:46 61.86017 -49.31099 8798 ft 138 kts 284°
2026-04-16 19:46 61.86400 -49.32961 8803 ft 138 kts 285°
2026-04-16 19:46 61.86783 -49.34819 8814 ft 139 kts 284°
2026-04-16 19:47 61.87170 -49.36694 8808 ft 139 kts 285°
2026-04-16 19:47 61.87560 -49.38576 8815 ft 141 kts 285°
2026-04-16 19:47 61.87954 -49.40474 8796 ft 141 kts 284°
2026-04-16 19:47 61.88345 -49.42362 8799 ft 140 kts 285°
2026-04-16 19:48 61.88739 -49.44268 8784 ft 139 kts 283°
2026-04-16 19:48 61.88770 -49.44421 8786 ft 139 kts 285°
2026-04-16 19:48 61.89148 -49.46263 8811 ft 140 kts 284°
2026-04-16 19:48 61.89538 -49.48169 8805 ft 141 kts 284°
2026-04-16 19:49 61.89928 -49.50071 8800 ft 143 kts 287°
2026-04-16 19:49 61.90325 -49.51988 8784 ft 142 kts 286°
2026-04-16 19:49 61.90717 -49.53912 8768 ft 140 kts 285°
2026-04-16 19:49 61.91106 -49.55803 8794 ft 140 kts 281°
2026-04-16 19:50 61.91491 -49.57696 8804 ft 141 kts 285°
2026-04-16 19:50 61.91884 -49.59616 8785 ft 142 kts 284°
2026-04-16 19:50 61.92280 -49.61538 8783 ft 141 kts 284°
2026-04-16 19:50 61.92673 -49.63452 8769 ft 141 kts 284°
2026-04-16 19:51 61.93062 -49.65357 8791 ft 141 kts 282°
2026-04-16 19:51 61.93453 -49.67281 8786 ft 142 kts 282°
2026-04-16 19:51 61.93843 -49.69197 8807 ft 143 kts 283°
2026-04-16 19:51 61.94238 -49.71128 8798 ft 143 kts 283°
2026-04-16 19:52 61.94637 -49.73080 8800 ft 144 kts 283°
2026-04-16 19:52 61.95033 -49.75023 8792 ft 143 kts 282°
2026-04-16 19:52 61.95423 -49.76951 8797 ft 143 kts 282°
2026-04-16 19:52 61.95820 -49.78908 8791 ft 143 kts 282°
2026-04-16 19:53 61.96212 -49.80843 8809 ft 144 kts 282°
2026-04-16 19:53 61.96611 -49.82830 8785 ft 146 kts 279°
2026-04-16 19:53 61.97007 -49.84805 8786 ft 145 kts 282°
2026-04-16 19:53 61.97404 -49.86766 8781 ft 146 kts 278°
2026-04-16 19:54 61.97796 -49.88736 8798 ft 146 kts 282°
2026-04-16 19:54 61.98201 -49.90731 8776 ft 146 kts 282°
2026-04-16 19:54 61.98596 -49.92696 8766 ft 145 kts 281°
2026-04-16 19:54 61.98995 -49.94668 8777 ft 147 kts 279°
2026-04-16 19:55 61.99396 -49.96661 8794 ft 146 kts 284°
2026-04-16 19:55 61.99800 -49.98665 8768 ft 146 kts 282°
2026-04-16 19:55 62.00261 -50.00572 8785 ft 148 kts 295°
2026-04-16 19:55 62.00740 -50.02461 8770 ft 144 kts 284°
2026-04-16 19:56 62.01149 -50.04418 8769 ft 143 kts 284°
2026-04-16 19:56 62.01553 -50.06347 8778 ft 143 kts 282°
2026-04-16 19:56 62.01963 -50.08280 8775 ft 145 kts 285°
2026-04-16 19:56 62.02390 -50.10243 8778 ft 146 kts 285°
2026-04-16 19:57 62.02816 -50.12185 8771 ft 146 kts 286°
2026-04-16 19:57 62.03254 -50.14151 8773 ft 146 kts 285°
2026-04-16 19:57 62.03687 -50.16103 8770 ft 145 kts 285°
2026-04-16 19:57 62.04122 -50.18061 8775 ft 146 kts 287°
2026-04-16 19:58 62.04556 -50.20011 8780 ft 147 kts 287°
2026-04-16 19:58 62.04995 -50.21970 8789 ft 147 kts 287°
2026-04-16 19:58 62.05444 -50.23979 8782 ft 147 kts 287°
2026-04-16 19:58 62.05682 -50.25039 8780 ft 146 kts 287°
2026-04-16 19:59 62.06110 -50.26951 8777 ft 143 kts 285°
2026-04-16 19:59 62.06533 -50.28873 8803 ft 142 kts 285°
2026-04-16 19:59 62.06956 -50.30800 8795 ft 144 kts 285°
2026-04-16 20:00 62.07811 -50.34665 8825 ft 144 kts 287°
2026-04-16 20:00 62.08238 -50.36590 8879 ft 142 kts 287°
2026-04-16 20:00 62.08656 -50.38476 8921 ft 141 kts 288°
2026-04-16 20:00 62.09066 -50.40331 8984 ft 137 kts 288°
2026-04-16 20:01 62.09478 -50.42201 8978 ft 138 kts 288°
2026-04-16 20:01 62.09890 -50.44073 8967 ft 139 kts 289°
2026-04-16 20:01 62.10302 -50.45946 8937 ft 141 kts 290°
2026-04-16 20:01 62.10728 -50.47871 8905 ft 142 kts 290°
2026-04-16 20:02 62.11146 -50.49765 8909 ft 142 kts 290°
2026-04-16 20:02 62.11566 -50.51671 8898 ft 142 kts 290°
2026-04-16 20:02 62.11982 -50.53568 8908 ft 140 kts 290°
2026-04-16 20:02 62.12396 -50.55456 8899 ft 141 kts 290°
2026-04-16 20:03 62.12811 -50.57350 8890 ft 141 kts 290°
2026-04-16 20:03 62.13227 -50.59251 8890 ft 141 kts 290°
2026-04-16 20:03 62.13638 -50.61125 8905 ft 139 kts 289°
2026-04-16 20:03 62.14053 -50.63026 8896 ft 140 kts 289°
2026-04-16 20:04 62.14465 -50.64914 8894 ft 140 kts 290°
2026-04-16 20:04 62.14879 -50.66811 8896 ft 140 kts 289°
2026-04-16 20:04 62.15288 -50.68691 8899 ft 139 kts 288°
2026-04-16 20:04 62.15698 -50.70573 8895 ft 140 kts 288°
2026-04-16 20:05 62.16105 -50.72438 8899 ft 139 kts 289°
2026-04-16 20:05 62.16516 -50.74326 8901 ft 138 kts 288°
2026-04-16 20:05 62.16924 -50.76207 8888 ft 139 kts 288°
2026-04-16 20:05 62.17333 -50.78090 8892 ft 139 kts 288°
2026-04-16 20:06 62.17738 -50.79957 8882 ft 139 kts 288°
2026-04-16 20:06 62.18147 -50.81847 8898 ft 138 kts 288°
2026-04-16 20:06 62.18208 -50.82129 8888 ft 139 kts 288°
2026-04-16 20:06 62.18611 -50.83997 8886 ft 139 kts 288°
2026-04-16 20:07 62.19015 -50.85865 8896 ft 139 kts 288°
2026-04-16 20:07 62.19425 -50.87768 8904 ft 140 kts 288°
2026-04-16 20:07 62.19840 -50.89691 8896 ft 144 kts 289°
2026-04-16 20:07 62.20269 -50.91669 8875 ft 146 kts 289°
2026-04-16 20:08 62.20690 -50.93598 8869 ft 144 kts 288°
2026-04-16 20:08 62.21108 -50.95537 8869 ft 143 kts 289°
2026-04-16 20:08 62.21521 -50.97445 8882 ft 141 kts 288°
2026-04-16 20:08 62.21926 -50.99333 8888 ft 139 kts 288°
2026-04-16 20:09 62.22336 -51.01251 8883 ft 139 kts 288°
2026-04-16 20:09 62.22739 -51.03133 8882 ft 139 kts 288°
2026-04-16 20:09 62.23142 -51.05018 8878 ft 140 kts 288°
2026-04-16 20:09 62.23545 -51.06900 8874 ft 140 kts 288°
2026-04-16 20:10 62.23949 -51.08794 8870 ft 140 kts 287°
2026-04-16 20:10 62.24358 -51.10710 8870 ft 140 kts 287°
2026-04-16 20:10 62.24760 -51.12593 8883 ft 139 kts 288°
2026-04-16 20:10 62.25163 -51.14476 8876 ft 140 kts 287°
2026-04-16 20:11 62.25566 -51.16370 8874 ft 140 kts 287°
2026-04-16 20:11 62.25971 -51.18277 8877 ft 139 kts 287°
2026-04-16 20:11 62.26368 -51.20147 8889 ft 138 kts 287°
2026-04-16 20:11 62.26772 -51.22044 8867 ft 141 kts 287°
2026-04-16 20:12 62.27182 -51.23971 8862 ft 141 kts 287°
2026-04-16 20:12 62.27582 -51.25853 8884 ft 139 kts 287°
2026-04-16 20:12 62.27984 -51.27755 8870 ft 141 kts 287°
2026-04-16 20:12 62.28385 -51.29653 8879 ft 140 kts 287°
2026-04-16 20:13 62.28788 -51.31559 8871 ft 141 kts 287°
2026-04-16 20:13 62.29192 -51.33474 8866 ft 141 kts 287°
2026-04-16 20:13 62.29596 -51.35383 8867 ft 141 kts 287°
2026-04-16 20:13 62.29771 -51.36213 8861 ft 141 kts 287°
2026-04-16 20:14 62.30145 -51.37985 8886 ft 140 kts 287°
2026-04-16 20:14 62.30547 -51.39893 8875 ft 141 kts 287°
2026-04-16 20:14 62.30948 -51.41798 8879 ft 141 kts 286°
2026-04-16 20:15 62.31354 -51.43726 8882 ft 141 kts 286°
2026-04-16 20:15 62.31757 -51.45643 8881 ft 141 kts 286°
2026-04-16 20:15 62.32160 -51.47566 8869 ft 142 kts 286°
2026-04-16 20:15 62.32565 -51.49495 8881 ft 141 kts 286°
2026-04-16 20:16 62.32967 -51.51411 8872 ft 142 kts 286°
2026-04-16 20:16 62.33376 -51.53363 8879 ft 141 kts 286°
2026-04-16 20:16 62.33780 -51.55291 8868 ft 143 kts 286°
2026-04-16 20:16 62.34187 -51.57234 8869 ft 143 kts 286°
2026-04-16 20:17 62.34590 -51.59163 8869 ft 143 kts 286°
2026-04-16 20:17 62.35000 -51.61126 8868 ft 143 kts 285°
2026-04-16 20:17 62.35403 -51.63063 8876 ft 142 kts 285°
2026-04-16 20:17 62.35805 -51.64999 8883 ft 142 kts 285°
2026-04-16 20:18 62.36212 -51.66956 8887 ft 142 kts 284°
2026-04-16 20:18 62.36616 -51.68895 8873 ft 143 kts 285°
2026-04-16 20:18 62.36958 -51.70535 8887 ft 141 kts 284°
2026-04-16 20:18 62.37360 -51.72475 8896 ft 141 kts 284°
2026-04-16 20:19 62.37761 -51.74414 8876 ft 143 kts 284°
2026-04-16 20:19 62.38163 -51.76355 8883 ft 142 kts 284°
2026-04-16 20:19 62.38559 -51.78277 8902 ft 141 kts 284°
2026-04-16 20:19 62.38958 -51.80216 8905 ft 141 kts 284°
2026-04-16 20:20 62.39359 -51.82163 8894 ft 143 kts 284°
2026-04-16 20:20 62.39763 -51.84121 8888 ft 143 kts 284°
2026-04-16 20:20 62.40163 -51.86054 8903 ft 142 kts 284°
2026-04-16 20:20 62.40564 -51.88002 8907 ft 142 kts 284°
2026-04-16 20:21 62.40971 -51.89974 8902 ft 142 kts 284°
2026-04-16 20:21 62.41376 -51.91943 8894 ft 143 kts 284°
2026-04-16 20:21 62.41777 -51.93892 8883 ft 144 kts 284°
2026-04-16 20:21 62.42177 -51.95839 8902 ft 142 kts 284°
2026-04-16 20:22 62.42577 -51.97790 8896 ft 143 kts 284°
2026-04-16 20:22 62.42976 -51.99746 8897 ft 143 kts 284°
2026-04-16 20:22 62.43382 -52.01727 8883 ft 143 kts 284°
2026-04-16 20:22 62.43779 -52.03670 8883 ft 141 kts 284°
2026-04-16 20:23 62.44173 -52.05603 8885 ft 139 kts 283°
2026-04-16 20:23 62.44560 -52.07509 8867 ft 140 kts 283°
2026-04-16 20:23 62.44949 -52.09416 8873 ft 139 kts 283°
2026-04-16 20:23 62.45332 -52.11314 8893 ft 139 kts 283°
2026-04-16 20:24 62.45726 -52.13258 8888 ft 140 kts 284°
2026-04-16 20:24 62.46115 -52.15179 8886 ft 141 kts 284°
2026-04-16 20:24 62.46512 -52.17122 8887 ft 142 kts 284°
2026-04-16 20:24 62.46908 -52.19064 8883 ft 142 kts 284°
2026-04-16 20:25 62.47304 -52.21012 8885 ft 142 kts 284°
2026-04-16 20:25 62.47701 -52.22963 8890 ft 142 kts 284°
2026-04-16 20:25 62.48100 -52.24936 8897 ft 141 kts 284°
2026-04-16 20:25 62.48494 -52.26883 8895 ft 142 kts 285°
2026-04-16 20:26 62.48886 -52.28824 8898 ft 142 kts 284°
2026-04-16 20:26 62.49282 -52.30790 8903 ft 141 kts 285°
2026-04-16 20:26 62.49677 -52.32740 8889 ft 142 kts 285°
2026-04-16 20:26 62.50075 -52.34714 8893 ft 142 kts 285°
2026-04-16 20:27 62.50466 -52.36652 8897 ft 141 kts 285°
2026-04-16 20:27 62.50863 -52.38632 8888 ft 142 kts 285°
2026-04-16 20:27 62.51254 -52.40575 8885 ft 142 kts 285°
2026-04-16 20:27 62.51644 -52.42517 8892 ft 141 kts 285°
2026-04-16 20:28 62.52038 -52.44482 8894 ft 141 kts 285°
2026-04-16 20:28 62.52426 -52.46423 8880 ft 141 kts 285°
2026-04-16 20:28 62.52817 -52.48378 8886 ft 141 kts 286°
2026-04-16 20:28 62.53202 -52.50300 8878 ft 141 kts 286°
2026-04-16 20:29 62.53588 -52.52240 8898 ft 139 kts 286°
2026-04-16 20:29 62.53977 -52.54191 8888 ft 140 kts 287°
2026-04-16 20:29 62.54360 -52.56110 8876 ft 141 kts 287°
2026-04-16 20:29 62.54743 -52.58028 8883 ft 140 kts 287°
2026-04-16 20:30 62.55132 -52.59977 8879 ft 140 kts 287°
2026-04-16 20:30 62.55508 -52.61882 8875 ft 140 kts 287°
2026-04-16 20:30 62.55893 -52.63821 8882 ft 139 kts 287°
2026-04-16 20:30 62.56273 -52.65731 8886 ft 139 kts 286°
2026-04-16 20:31 62.56653 -52.67652 8873 ft 139 kts 286°
2026-04-16 20:31 62.57034 -52.69572 8883 ft 138 kts 286°
2026-04-16 20:31 62.57410 -52.71477 8880 ft 138 kts 286°
2026-04-16 20:31 62.57788 -52.73395 8869 ft 139 kts 286°
2026-04-16 20:32 62.58162 -52.75291 8891 ft 137 kts 287°
2026-04-16 20:32 62.58538 -52.77206 8894 ft 136 kts 287°
2026-04-16 20:32 62.58911 -52.79099 8876 ft 137 kts 287°
2026-04-16 20:32 62.59282 -52.80985 8887 ft 136 kts 287°
2026-04-16 20:33 62.59650 -52.82857 8882 ft 137 kts 287°
2026-04-16 20:33 62.60024 -52.84760 8884 ft 136 kts 287°
2026-04-16 20:33 62.60392 -52.86631 8900 ft 135 kts 287°
2026-04-16 20:33 62.60760 -52.88509 8890 ft 135 kts 287°
2026-04-16 20:34 62.61131 -52.90406 8893 ft 135 kts 287°
2026-04-16 20:34 62.61498 -52.92278 8884 ft 136 kts 287°
2026-04-16 20:34 62.61867 -52.94161 8883 ft 135 kts 288°
2026-04-16 20:34 62.62235 -52.96041 8893 ft 134 kts 287°
2026-04-16 20:35 62.62598 -52.97903 8901 ft 133 kts 287°
2026-04-16 20:35 62.62965 -52.99778 8887 ft 135 kts 288°
2026-04-16 20:35 62.63327 -53.01642 8884 ft 135 kts 288°
2026-04-16 20:35 62.63694 -53.03523 8883 ft 134 kts 288°
2026-04-16 20:36 62.64056 -53.05385 8895 ft 133 kts 288°
2026-04-16 20:36 62.64415 -53.07233 8902 ft 133 kts 288°
2026-04-16 20:36 62.64776 -53.09096 8877 ft 135 kts 288°
2026-04-16 20:36 62.65138 -53.10956 8881 ft 134 kts 288°
2026-04-16 20:37 62.65500 -53.12827 8893 ft 132 kts 288°
2026-04-16 20:37 62.65858 -53.14675 8878 ft 133 kts 288°
2026-04-16 20:37 62.66215 -53.16521 8893 ft 132 kts 288°
2026-04-16 20:37 62.66574 -53.18377 8877 ft 133 kts 289°
2026-04-16 20:38 62.66930 -53.20219 8874 ft 133 kts 289°
2026-04-16 20:38 62.67283 -53.22051 8877 ft 133 kts 289°
2026-04-16 20:38 62.67636 -53.23883 8883 ft 132 kts 289°
2026-04-16 20:38 62.67988 -53.25715 8885 ft 131 kts 289°
2026-04-16 20:39 62.68339 -53.27537 8899 ft 130 kts 289°
2026-04-16 20:39 62.68691 -53.29372 8897 ft 131 kts 289°
2026-04-16 20:39 62.69044 -53.31204 8898 ft 130 kts 289°
2026-04-16 20:39 62.69391 -53.33016 8889 ft 131 kts 289°
2026-04-16 20:40 62.69743 -53.34860 8883 ft 131 kts 289°
2026-04-16 20:40 62.70090 -53.36667 8891 ft 130 kts 289°
2026-04-16 20:40 62.70442 -53.38504 8895 ft 129 kts 289°
2026-04-16 20:40 62.70787 -53.40313 8877 ft 131 kts 289°
2026-04-16 20:41 62.71133 -53.42120 8891 ft 130 kts 290°
2026-04-16 20:41 62.71477 -53.43930 8897 ft 129 kts 290°
2026-04-16 20:41 62.71823 -53.45748 8893 ft 129 kts 289°
2026-04-16 20:41 62.72167 -53.47554 8897 ft 129 kts 289°
2026-04-16 20:42 62.72511 -53.49362 8902 ft 129 kts 289°
2026-04-16 20:42 62.72857 -53.51179 8897 ft 129 kts 290°
2026-04-16 20:42 62.73200 -53.52987 8898 ft 129 kts 289°
2026-04-16 20:42 62.73542 -53.54790 8893 ft 129 kts 290°
2026-04-16 20:43 62.73885 -53.56601 8897 ft 129 kts 290°
2026-04-16 20:43 62.74230 -53.58421 8889 ft 130 kts 290°
2026-04-16 20:43 62.74572 -53.60229 8879 ft 130 kts 290°
2026-04-16 20:43 62.74915 -53.62040 8885 ft 129 kts 290°
2026-04-16 20:44 62.75258 -53.63861 8895 ft 128 kts 290°
2026-04-16 20:44 62.75594 -53.65641 8890 ft 129 kts 289°
2026-04-16 20:44 62.75937 -53.67463 8901 ft 128 kts 289°
2026-04-16 20:44 62.76279 -53.69268 8894 ft 128 kts 289°
2026-04-16 20:45 62.76614 -53.71052 8889 ft 129 kts 289°
2026-04-16 20:45 62.76954 -53.72865 8884 ft 129 kts 289°
2026-04-16 20:45 62.77293 -53.74668 8889 ft 128 kts 289°
2026-04-16 20:45 62.77629 -53.76466 8884 ft 129 kts 289°
2026-04-16 20:46 62.77967 -53.78269 8891 ft 128 kts 289°
2026-04-16 20:46 62.78303 -53.80061 8899 ft 127 kts 289°
2026-04-16 20:46 62.78638 -53.81853 8887 ft 128 kts 289°
2026-04-16 20:46 62.78976 -53.83660 8902 ft 127 kts 289°
2026-04-16 20:47 62.79310 -53.85453 8895 ft 127 kts 289°
2026-04-16 20:47 62.79644 -53.87238 8897 ft 127 kts 289°
2026-04-16 20:47 62.79979 -53.89040 8895 ft 128 kts 289°
2026-04-16 20:47 62.80311 -53.90820 8892 ft 128 kts 289°
2026-04-16 20:48 62.80648 -53.92629 8898 ft 127 kts 289°
2026-04-16 20:48 62.80980 -53.94418 8894 ft 128 kts 289°
2026-04-16 20:48 62.81316 -53.96232 8896 ft 128 kts 289°
2026-04-16 20:48 62.81649 -53.98025 8891 ft 128 kts 289°
2026-04-16 20:49 62.81984 -53.99839 8895 ft 128 kts 289°
2026-04-16 20:49 62.82317 -54.01630 8894 ft 128 kts 289°
2026-04-16 20:49 62.82649 -54.03419 8897 ft 128 kts 289°
2026-04-16 20:49 62.82982 -54.05212 8899 ft 128 kts 289°
2026-04-16 20:50 62.83318 -54.07038 8900 ft 128 kts 289°
2026-04-16 20:50 62.83651 -54.08830 8901 ft 128 kts 290°
2026-04-16 20:50 62.83985 -54.10633 8899 ft 128 kts 290°
2026-04-16 20:50 62.84318 -54.12435 8895 ft 127 kts 290°
2026-04-16 20:51 62.84651 -54.14243 8895 ft 127 kts 290°
2026-04-16 20:51 62.84977 -54.16016 8886 ft 127 kts 289°
2026-04-16 20:51 62.85304 -54.17798 8893 ft 126 kts 289°
2026-04-16 20:51 62.85630 -54.19579 8891 ft 126 kts 289°
2026-04-16 20:52 62.85958 -54.21374 8892 ft 126 kts 289°
2026-04-16 20:52 62.86284 -54.23159 8886 ft 127 kts 290°
2026-04-16 20:52 62.86609 -54.24937 8887 ft 126 kts 289°
2026-04-16 20:52 62.86937 -54.26736 8889 ft 126 kts 289°
2026-04-16 20:53 62.87261 -54.28508 8895 ft 126 kts 289°
2026-04-16 20:53 62.87590 -54.30310 8886 ft 127 kts 289°
2026-04-16 20:53 62.87915 -54.32092 8873 ft 128 kts 289°
2026-04-16 20:53 62.88239 -54.33877 8889 ft 126 kts 289°
2026-04-16 20:54 62.88565 -54.35669 8886 ft 127 kts 289°
2026-04-16 20:54 62.88891 -54.37461 8882 ft 127 kts 289°
2026-04-16 20:54 62.89218 -54.39265 8887 ft 127 kts 289°
2026-04-16 20:54 62.89543 -54.41055 8889 ft 127 kts 289°
2026-04-16 20:55 62.89868 -54.42844 8889 ft 127 kts 289°
2026-04-16 20:55 62.90190 -54.44627 8891 ft 127 kts 289°
2026-04-16 20:55 62.90515 -54.46425 8896 ft 126 kts 289°
2026-04-16 20:55 62.90843 -54.48235 8902 ft 126 kts 289°
2026-04-16 20:56 62.91168 -54.50031 8885 ft 127 kts 289°
2026-04-16 20:56 62.91490 -54.51815 8887 ft 127 kts 289°
2026-04-16 20:56 62.91608 -54.52472 8891 ft 127 kts 289°
2026-04-16 20:56 62.91705 -54.53005 8890 ft 127 kts 289°
2026-04-16 20:57 62.92029 -54.54803 8887 ft 127 kts 289°
2026-04-16 20:57 62.92351 -54.56591 8887 ft 127 kts 289°
2026-04-16 20:57 62.92674 -54.58389 8889 ft 127 kts 289°
2026-04-16 20:57 62.92998 -54.60195 8890 ft 127 kts 289°
2026-04-16 20:58 62.93321 -54.61988 8897 ft 127 kts 289°
2026-04-16 20:58 62.93646 -54.63799 8890 ft 127 kts 289°
2026-04-16 20:58 62.93972 -54.65614 8894 ft 127 kts 288°
2026-04-16 20:58 62.94293 -54.67410 8889 ft 127 kts 288°
2026-04-16 20:59 62.94617 -54.69223 8889 ft 127 kts 288°
2026-04-16 20:59 62.94940 -54.71030 8887 ft 128 kts 288°
2026-04-16 20:59 62.95262 -54.72835 8897 ft 127 kts 288°
2026-04-16 20:59 62.95586 -54.74644 8890 ft 127 kts 288°
2026-04-16 21:00 62.95908 -54.76458 8899 ft 127 kts 288°
2026-04-16 21:00 62.96228 -54.78256 8887 ft 128 kts 288°
2026-04-16 21:00 62.96551 -54.80071 8886 ft 128 kts 288°
2026-04-16 21:00 62.96875 -54.81889 8888 ft 128 kts 288°
2026-04-16 21:01 62.97199 -54.83717 8887 ft 128 kts 288°
2026-04-16 21:01 62.97521 -54.85530 8898 ft 127 kts 288°
2026-04-16 21:01 62.97843 -54.87344 8896 ft 127 kts 288°
2026-04-16 21:01 62.98163 -54.89150 8896 ft 127 kts 288°
2026-04-16 21:02 62.98488 -54.90990 8887 ft 128 kts 288°
2026-04-16 21:02 62.98809 -54.92806 8893 ft 128 kts 288°
2026-04-16 21:02 62.99131 -54.94624 8883 ft 128 kts 288°
2026-04-16 21:03 62.99775 -54.98270 8883 ft 128 kts 288°
2026-04-16 21:03 63.00069 -55.00114 8887 ft 126 kts 281°
2026-04-16 21:03 63.00263 -55.01999 8874 ft 127 kts 278°
2026-04-16 21:03 63.00439 -55.03895 8882 ft 126 kts 278°
2026-04-16 21:04 63.00611 -55.05798 8890 ft 125 kts 278°
2026-04-16 21:04 63.00781 -55.07672 8887 ft 126 kts 278°
2026-04-16 21:04 63.00953 -55.09565 8893 ft 125 kts 278°
2026-04-16 21:04 63.01125 -55.11456 8883 ft 126 kts 278°
2026-04-16 21:05 63.01297 -55.13343 8892 ft 125 kts 278°
2026-04-16 21:05 63.01469 -55.15228 8889 ft 126 kts 278°
2026-04-16 21:05 63.01641 -55.17130 8884 ft 126 kts 278°
2026-04-16 21:05 63.01812 -55.19017 8875 ft 127 kts 278°
2026-04-16 21:06 63.01982 -55.20898 8888 ft 126 kts 278°
2026-04-16 21:06 63.02153 -55.22786 8897 ft 125 kts 278°
2026-04-16 21:06 63.02326 -55.24699 8883 ft 126 kts 278°
2026-04-16 21:06 63.02495 -55.26578 8887 ft 126 kts 278°
2026-04-16 21:07 63.02667 -55.28479 8886 ft 126 kts 278°
2026-04-16 21:07 63.02837 -55.30368 8889 ft 126 kts 278°
2026-04-16 21:07 63.03006 -55.32261 8879 ft 127 kts 278°
2026-04-16 21:07 63.03175 -55.34153 8869 ft 127 kts 278°
2026-04-16 21:08 63.03344 -55.36040 8891 ft 126 kts 278°
2026-04-16 21:08 63.03513 -55.37928 8888 ft 126 kts 278°
2026-04-16 21:08 63.03682 -55.39835 8888 ft 126 kts 278°
2026-04-16 21:08 63.03850 -55.41716 8897 ft 126 kts 278°
2026-04-16 21:09 63.04020 -55.43621 8891 ft 126 kts 278°
2026-04-16 21:09 63.04188 -55.45514 8889 ft 126 kts 278°
2026-04-16 21:09 63.04355 -55.47403 8890 ft 126 kts 278°
2026-04-16 21:09 63.04523 -55.49299 8878 ft 127 kts 278°
2026-04-16 21:10 63.04691 -55.51193 8880 ft 127 kts 278°
2026-04-16 21:10 63.04857 -55.53091 8890 ft 126 kts 278°
2026-04-16 21:10 63.05025 -55.55009 8886 ft 126 kts 278°
2026-04-16 21:10 63.05192 -55.56902 8893 ft 126 kts 277°
2026-04-16 21:11 63.05358 -55.58793 8893 ft 127 kts 277°
2026-04-16 21:11 63.05523 -55.60690 8893 ft 127 kts 277°
2026-04-16 21:11 63.05691 -55.62616 8894 ft 127 kts 278°
2026-04-16 21:11 63.05858 -55.64522 8893 ft 127 kts 277°
2026-04-16 21:12 63.06024 -55.66429 8898 ft 127 kts 277°
2026-04-16 21:12 63.06190 -55.68334 8894 ft 127 kts 277°
2026-04-16 21:12 63.06357 -55.70257 8897 ft 127 kts 277°
2026-04-16 21:12 63.06522 -55.72155 8897 ft 127 kts 277°
2026-04-16 21:13 63.06687 -55.74063 8901 ft 127 kts 277°
2026-04-16 21:13 63.06851 -55.75972 8906 ft 126 kts 277°
2026-04-16 21:13 63.07016 -55.77887 8899 ft 127 kts 277°
2026-04-16 21:13 63.07180 -55.79792 8897 ft 127 kts 277°
2026-04-16 21:14 63.07348 -55.81731 8901 ft 127 kts 277°
2026-04-16 21:14 63.07510 -55.83628 8901 ft 127 kts 277°
2026-04-16 21:14 63.07675 -55.85551 8910 ft 126 kts 277°
2026-04-16 21:14 63.07839 -55.87475 8896 ft 127 kts 277°
2026-04-16 21:15 63.08002 -55.89380 8902 ft 127 kts 277°
2026-04-16 21:15 63.08165 -55.91292 8907 ft 127 kts 277°
2026-04-16 21:15 63.08328 -55.93201 8904 ft 127 kts 277°
2026-04-16 21:15 63.08490 -55.95117 8911 ft 127 kts 277°
2026-04-16 21:16 63.08653 -55.97047 8904 ft 127 kts 277°
2026-04-16 21:16 63.08818 -55.98983 8909 ft 127 kts 277°
2026-04-16 21:16 63.08980 -56.00903 8901 ft 128 kts 276°
2026-04-16 21:16 63.09143 -56.02839 8906 ft 128 kts 276°
2026-04-16 21:17 63.09306 -56.04776 8923 ft 129 kts 277°
2026-04-16 21:17 63.09470 -56.06724 8921 ft 130 kts 277°
2026-04-16 21:17 63.09637 -56.08695 8915 ft 131 kts 277°
2026-04-16 21:17 63.09805 -56.10684 8910 ft 132 kts 277°
2026-04-16 21:18 63.09971 -56.12656 8895 ft 132 kts 277°
2026-04-16 21:18 63.10136 -56.14635 8908 ft 129 kts 277°
2026-04-16 21:18 63.10299 -56.16585 8910 ft 129 kts 278°
2026-04-16 21:18 63.10368 -56.17418 8920 ft 127 kts 278°
2026-04-16 21:19 63.10464 -56.18564 8912 ft 128 kts 278°
2026-04-16 21:19 63.10624 -56.20491 8921 ft 127 kts 278°
2026-04-16 21:19 63.10782 -56.22405 8918 ft 127 kts 277°
2026-04-16 21:19 63.10940 -56.24320 8924 ft 127 kts 277°
2026-04-16 21:20 63.11098 -56.26246 8918 ft 127 kts 277°
2026-04-16 21:20 63.11258 -56.28188 8922 ft 127 kts 277°
2026-04-16 21:20 63.11413 -56.30102 8919 ft 127 kts 278°
2026-04-16 21:20 63.11569 -56.32014 8917 ft 127 kts 277°
2026-04-16 21:21 63.11723 -56.33921 8918 ft 127 kts 277°
2026-04-16 21:21 63.11882 -56.35848 8918 ft 127 kts 278°
2026-04-16 21:21 63.12037 -56.37750 8919 ft 126 kts 277°
2026-04-16 21:21 63.12193 -56.39651 8919 ft 126 kts 277°
2026-04-16 21:22 63.12348 -56.41568 8919 ft 126 kts 278°
2026-04-16 21:22 63.12504 -56.43488 8920 ft 126 kts 277°
2026-04-16 21:22 63.12660 -56.45385 8921 ft 126 kts 277°
2026-04-16 21:22 63.12815 -56.47315 8921 ft 126 kts 277°
2026-04-16 21:23 63.12967 -56.49213 8922 ft 127 kts 278°
2026-04-16 21:23 63.13123 -56.51120 8923 ft 127 kts 278°
2026-04-16 21:23 63.13278 -56.53051 8923 ft 127 kts 278°
2026-04-16 21:23 63.13431 -56.54956 8923 ft 127 kts 278°
2026-04-16 21:24 63.13585 -56.56877 8924 ft 127 kts 278°
2026-04-16 21:24 63.13738 -56.58807 8925 ft 127 kts 278°
2026-04-16 21:24 63.13891 -56.60703 8926 ft 127 kts 278°
2026-04-16 21:24 63.14046 -56.62624 8926 ft 127 kts 278°
2026-04-16 21:25 63.14201 -56.64554 8926 ft 127 kts 278°
2026-04-16 21:25 63.14354 -56.66473 8926 ft 127 kts 277°
2026-04-16 21:25 63.14507 -56.68386 8926 ft 127 kts 277°
2026-04-16 21:25 63.14657 -56.70296 8928 ft 127 kts 277°
2026-04-16 21:26 63.14811 -56.72238 8928 ft 127 kts 277°
2026-04-16 21:26 63.14962 -56.74155 8928 ft 127 kts 277°
2026-04-16 21:26 63.15115 -56.76075 8929 ft 127 kts 277°
2026-04-16 21:26 63.15264 -56.77982 8930 ft 127 kts 277°
2026-04-16 21:27 63.15413 -56.79904 8931 ft 127 kts 277°
2026-04-16 21:27 63.15564 -56.81825 8931 ft 127 kts 277°
2026-04-16 21:27 63.15715 -56.83770 8932 ft 127 kts 277°
2026-04-16 21:27 63.15867 -56.85697 8932 ft 127 kts 277°
2026-04-16 21:28 63.16016 -56.87621 8933 ft 127 kts 277°
2026-04-16 21:28 63.16165 -56.89541 8934 ft 127 kts 277°
2026-04-16 21:28 63.16316 -56.91471 8934 ft 127 kts 277°
2026-04-16 21:28 63.16465 -56.93399 8935 ft 127 kts 277°
2026-04-16 21:29 63.16615 -56.95334 8936 ft 127 kts 277°
2026-04-16 21:29 63.16765 -56.97269 8936 ft 128 kts 278°
2026-04-16 21:29 63.16914 -56.99207 8937 ft 128 kts 277°
2026-04-16 21:29 63.17059 -57.01138 8938 ft 128 kts 278°
2026-04-16 21:30 63.17210 -57.03075 8937 ft 128 kts 278°
2026-04-16 21:30 63.17362 -57.05004 8934 ft 128 kts 278°
2026-04-16 21:30 63.17514 -57.06941 8929 ft 128 kts 279°
2026-04-16 21:30 63.17664 -57.08875 8929 ft 128 kts 279°
2026-04-16 21:31 63.17806 -57.10817 8928 ft 128 kts 279°
2026-04-16 21:31 63.17951 -57.12786 8930 ft 128 kts 278°
2026-04-16 21:31 63.18095 -57.14724 8931 ft 128 kts 280°
2026-04-16 21:31 63.18243 -57.16670 8933 ft 128 kts 279°
2026-04-16 21:32 63.18387 -57.18612 8934 ft 128 kts 280°
2026-04-16 21:32 63.18536 -57.20554 8936 ft 128 kts 281°
2026-04-16 21:32 63.18694 -57.22481 8937 ft 128 kts 281°
2026-04-16 21:32 63.18848 -57.24436 8937 ft 128 kts 281°
2026-04-16 21:33 63.18991 -57.26388 8938 ft 128 kts 278°
2026-04-16 21:33 63.19137 -57.28316 8939 ft 128 kts 280°
2026-04-16 21:33 63.19281 -57.30286 8940 ft 128 kts 280°
2026-04-16 21:33 63.19425 -57.32242 8941 ft 128 kts 280°
2026-04-16 21:34 63.19568 -57.34197 8940 ft 129 kts 281°
2026-04-16 21:34 63.19711 -57.36141 8942 ft 129 kts 282°
2026-04-16 21:34 63.19850 -57.38088 8943 ft 129 kts 282°
2026-04-16 21:34 63.20003 -57.40044 8943 ft 129 kts 281°
2026-04-16 21:35 63.20157 -57.42008 8943 ft 129 kts 281°
2026-04-16 21:35 63.20303 -57.43955 8944 ft 129 kts 282°
2026-04-16 21:35 63.20446 -57.45907 8945 ft 129 kts 281°
2026-04-16 21:35 63.20587 -57.47865 8947 ft 129 kts 282°
2026-04-16 21:36 63.20729 -57.49831 8947 ft 129 kts 281°
2026-04-16 21:36 63.20879 -57.51814 8948 ft 129 kts 281°
2026-04-16 21:36 63.21012 -57.53786 8949 ft 130 kts 281°
2026-04-16 21:36 63.21151 -57.55754 8948 ft 130 kts 281°
2026-04-16 21:37 63.21292 -57.57721 8952 ft 130 kts 282°
2026-04-16 21:37 63.21437 -57.59689 8951 ft 130 kts 281°
2026-04-16 21:37 63.21581 -57.61659 8951 ft 130 kts 281°
2026-04-16 21:37 63.21719 -57.63657 8954 ft 130 kts 282°
2026-04-16 21:38 63.21865 -57.65634 8952 ft 130 kts 281°
2026-04-16 21:38 63.22010 -57.67618 8953 ft 130 kts 281°
2026-04-16 21:38 63.22148 -57.69600 8951 ft 130 kts 282°
2026-04-16 21:38 63.22290 -57.71585 8953 ft 130 kts 281°
2026-04-16 21:39 63.22430 -57.73564 8956 ft 130 kts 281°
2026-04-16 21:39 63.22575 -57.75528 8971 ft 129 kts 282°
2026-04-16 21:39 63.22719 -57.77499 8995 ft 128 kts 282°
2026-04-16 21:39 63.22857 -57.79443 9014 ft 127 kts 281°
2026-04-16 21:40 63.22988 -57.81380 9037 ft 127 kts 281°
2026-04-16 21:40 63.23124 -57.83340 9041 ft 128 kts 281°
2026-04-16 21:40 63.23260 -57.85288 9047 ft 129 kts 282°
2026-04-16 21:40 63.23404 -57.87248 9049 ft 129 kts 282°
2026-04-16 21:41 63.23543 -57.89229 9048 ft 130 kts 280°
2026-04-16 21:41 63.23684 -57.91219 9051 ft 131 kts 282°
2026-04-16 21:41 63.23830 -57.93231 9049 ft 131 kts 281°
2026-04-16 21:41 63.23969 -57.95229 9050 ft 132 kts 281°
2026-04-16 21:42 63.24107 -57.97227 9052 ft 132 kts 282°
2026-04-16 21:42 63.24249 -57.99232 9051 ft 132 kts 282°
2026-04-16 21:42 63.24389 -58.01263 9053 ft 132 kts 282°
2026-04-16 21:42 63.24529 -58.03268 9054 ft 132 kts 283°
2026-04-16 21:43 63.24677 -58.05286 9058 ft 133 kts 282°
2026-04-16 21:43 63.24813 -58.07315 9066 ft 133 kts 281°
2026-04-16 21:43 63.24860 -58.08051 9064 ft 134 kts 281°
2026-04-16 21:43 63.24887 -58.08508 9066 ft 134 kts 281°
2026-04-16 21:44 63.25032 -58.10537 9068 ft 134 kts 282°
2026-04-16 21:44 63.25172 -58.12592 9070 ft 134 kts 283°
2026-04-16 21:44 63.25311 -58.14626 9066 ft 134 kts 283°
2026-04-16 21:44 63.25449 -58.16598 9065 ft 133 kts 283°
2026-04-16 21:45 63.25593 -58.18636 9068 ft 133 kts 282°
2026-04-16 21:45 63.25734 -58.20663 9068 ft 133 kts 283°
2026-04-16 21:45 63.25872 -58.22677 9066 ft 133 kts 282°
2026-04-16 21:45 63.26009 -58.24724 9068 ft 133 kts 283°
2026-04-16 21:46 63.26147 -58.26740 9069 ft 133 kts 282°
2026-04-16 21:46 63.26279 -58.28754 9069 ft 133 kts 282°
2026-04-16 21:46 63.26418 -58.30777 9070 ft 133 kts 283°
2026-04-16 21:46 63.26559 -58.32787 9071 ft 132 kts 282°
2026-04-16 21:47 63.26692 -58.34831 9071 ft 133 kts 283°
2026-04-16 21:47 63.26824 -58.36852 9075 ft 132 kts 283°
2026-04-16 21:47 63.26951 -58.38863 9074 ft 133 kts 282°
2026-04-16 21:47 63.27091 -58.40897 9073 ft 133 kts 282°
2026-04-16 21:48 63.27226 -58.42932 9078 ft 132 kts 283°
2026-04-16 21:48 63.27356 -58.44953 9078 ft 133 kts 283°
2026-04-16 21:48 63.27494 -58.46971 9080 ft 132 kts 283°
2026-04-16 21:48 63.27631 -58.48986 9078 ft 133 kts 283°
2026-04-16 21:49 63.27674 -58.49610 9078 ft 133 kts 283°